Year,Month,Day,Hour,Minute,Value (Times are PST for temperature in C)
2008,05,29,00,00,12.20
2008,05,29,00,01,12.20
2008,05,29,00,02,12.20
2008,05,29,00,03,12.10
2008,05,29,00,04,12.10
2008,05,29,00,05,12.10
2008,05,29,00,06,12.00
2008,05,29,00,07,12.00
2008,05,29,00,08,12.00
2008,05,29,00,09,11.90
2008,05,29,00,10,11.90
2008,05,29,00,11,11.90
2008,05,29,00,12,11.80
2008,05,29,01,02,11.40
2008,05,29,01,03,11.40
2008,05,29,01,04,11.40
2008,05,29,01,05,11.40
2008,05,29,01,06,11.50
2008,05,29,01,07,11.60
2008,05,29,01,08,11.60
2008,05,29,01,09,11.60
2008,05,29,01,10,11.60
2008,05,29,01,11,11.60
2008,05,29,01,12,11.60
2008,05,29,01,13,11.60
2008,05,29,01,14,11.60
2008,05,29,01,15,11.60
2008,05,29,01,16,11.60
2008,05,29,01,17,11.60
2008,05,29,01,18,11.60
2008,05,29,01,19,11.60
2008,05,29,01,20,11.60
2008,05,29,01,21,11.60
2008,05,29,01,22,11.60
2008,05,29,01,23,11.60
2008,05,29,01,24,11.60
2008,05,29,01,25,11.70
2008,05,29,01,26,11.70
2008,05,29,01,27,11.70
2008,05,29,01,28,11.70
2008,05,29,01,29,11.70
2008,05,29,01,30,11.80
2008,05,29,01,31,11.80
2008,05,29,01,32,11.80
2008,05,29,01,33,11.80
2008,05,29,01,34,11.80
2008,05,29,01,35,11.80
2008,05,29,01,36,11.90
2008,05,29,01,37,11.90
2008,05,29,01,38,11.90
2008,05,29,01,39,11.90
2008,05,29,01,40,11.90
2008,05,29,01,41,11.90
2008,05,29,01,42,11.90
2008,05,29,01,43,11.90
2008,05,29,01,44,11.90
2008,05,29,01,45,11.90
2008,05,29,01,46,11.90
2008,05,29,01,47,11.90
2008,05,29,01,48,11.90
2008,05,29,01,49,11.90
2008,05,29,01,50,11.90
2008,05,29,01,51,11.90
2008,05,29,01,52,11.90
2008,05,29,01,53,11.90
2008,05,29,01,54,11.90
2008,05,29,01,55,11.90
2008,05,29,01,56,11.90
2008,05,29,01,57,11.90
2008,05,29,01,58,11.90
2008,05,29,01,59,11.80
2008,05,29,02,00,11.80
2008,05,29,02,01,11.80
2008,05,29,02,02,11.80
2008,05,29,02,03,11.80
2008,05,29,02,04,11.80
2008,05,29,02,05,11.80
2008,05,29,02,06,11.80
2008,05,29,02,07,11.80
2008,05,29,02,08,11.80
2008,05,29,02,09,11.80
2008,05,29,02,10,11.80
2008,05,29,02,11,11.70
2008,05,29,02,12,11.70
2008,05,29,02,13,11.70
2008,05,29,02,14,11.70
2008,05,29,02,15,11.70
2008,05,29,02,16,11.70
2008,05,29,02,17,11.60
2008,05,29,02,18,11.60
2008,05,29,02,19,11.60
2008,05,29,02,20,11.60
2008,05,29,02,21,11.60
2008,05,29,02,22,11.60
2008,05,29,02,23,11.60
2008,05,29,02,24,11.60
2008,05,29,02,25,11.60
2008,05,29,02,26,11.60
2008,05,29,02,27,11.60
2008,05,29,02,28,11.60
2008,05,29,02,29,11.40
2008,05,29,02,30,11.40
2008,05,29,02,31,11.40
2008,05,29,02,32,11.40
2008,05,29,02,33,11.40
2008,05,29,02,34,11.40
2008,05,29,02,35,11.40
2008,05,29,02,36,11.40
2008,05,29,02,37,11.40
2008,05,29,02,38,11.40
2008,05,29,02,39,11.40
2008,05,29,02,40,11.40
2008,05,29,02,41,11.40
2008,05,29,02,42,11.40
2008,05,29,02,43,11.40
2008,05,29,02,44,11.40
2008,05,29,02,45,11.30
2008,05,29,02,46,11.30
2008,05,29,02,47,11.30
2008,05,29,02,48,11.30
2008,05,29,02,49,11.30
2008,05,29,02,50,11.30
2008,05,29,02,51,11.30
2008,05,29,02,52,11.30
2008,05,29,02,53,11.30
2008,05,29,02,54,11.30
2008,05,29,02,55,11.30
2008,05,29,02,56,11.20
2008,05,29,02,57,11.20
2008,05,29,02,58,11.20
2008,05,29,02,59,11.20
2008,05,29,03,00,11.20
2008,05,29,03,01,11.20
2008,05,29,03,02,11.20
2008,05,29,03,03,11.20
2008,05,29,03,04,11.10
2008,05,29,03,05,11.10
2008,05,29,03,06,11.10
2008,05,29,03,07,11.10
2008,05,29,03,08,11.10
2008,05,29,03,09,11.10
2008,05,29,03,10,11.10
2008,05,29,03,11,11.10
2008,05,29,03,12,11.10
2008,05,29,03,13,11.10
2008,05,29,03,14,11.10
2008,05,29,03,15,11.10
2008,05,29,03,16,11.10
2008,05,29,03,17,11.10
2008,05,29,03,18,11.10
2008,05,29,03,19,11.00
2008,05,29,03,20,10.90
2008,05,29,03,21,10.90
2008,05,29,03,22,10.90
2008,05,29,03,23,10.90
2008,05,29,03,24,10.90
2008,05,29,03,25,10.90
2008,05,29,03,26,10.90
2008,05,29,03,27,10.80
2008,05,29,03,28,10.80
2008,05,29,03,29,10.80
2008,05,29,03,30,10.80
2008,05,29,03,31,10.80
2008,05,29,03,32,10.70
2008,05,29,03,33,10.70
2008,05,29,03,34,10.70
2008,05,29,03,35,10.70
2008,05,29,03,36,10.70
2008,05,29,03,37,10.70
2008,05,29,03,38,10.60
2008,05,29,03,39,10.60
2008,05,29,03,40,10.60
2008,05,29,03,41,10.60
2008,05,29,03,42,10.60
2008,05,29,03,43,10.60
2008,05,29,03,44,10.60
2008,05,29,03,45,10.60
2008,05,29,03,46,10.60
2008,05,29,03,47,10.60
2008,05,29,03,48,10.60
2008,05,29,03,49,10.60
2008,05,29,03,50,10.60
2008,05,29,03,51,10.60
2008,05,29,03,52,10.60
2008,05,29,03,53,10.70
2008,05,29,03,54,10.70
2008,05,29,03,55,10.70
2008,05,29,03,56,10.70
2008,05,29,03,57,10.70
2008,05,29,03,58,10.70
2008,05,29,03,59,10.70
2008,05,29,04,00,10.70
2008,05,29,04,01,10.80
2008,05,29,04,02,10.80
2008,05,29,04,03,10.80
2008,05,29,04,04,10.80
2008,05,29,04,05,10.80
2008,05,29,04,06,10.80
2008,05,29,04,07,10.80
2008,05,29,04,08,10.80
2008,05,29,04,09,10.80
2008,05,29,04,10,10.80
2008,05,29,04,11,10.80
2008,05,29,04,12,10.80
2008,05,29,04,13,10.80
2008,05,29,04,14,10.80
2008,05,29,04,15,10.80
2008,05,29,04,16,10.80
2008,05,29,04,17,10.80
2008,05,29,04,18,10.80
2008,05,29,04,19,10.80
2008,05,29,04,20,10.80
2008,05,29,04,21,10.80
2008,05,29,04,22,10.70
2008,05,29,04,23,10.70
2008,05,29,04,24,10.70
2008,05,29,04,25,10.70
2008,05,29,04,26,10.70
2008,05,29,04,27,10.70
2008,05,29,04,28,10.70
2008,05,29,04,29,10.70
2008,05,29,04,30,10.70
2008,05,29,04,31,10.60
2008,05,29,04,32,10.60
2008,05,29,04,33,10.60
2008,05,29,04,34,10.60
2008,05,29,04,35,10.60
2008,05,29,04,36,10.60
2008,05,29,04,37,10.60
2008,05,29,04,38,10.60
2008,05,29,04,39,10.60
2008,05,29,04,40,10.50
2008,05,29,04,41,10.40
2008,05,29,04,42,10.40
2008,05,29,04,43,10.40
2008,05,29,04,44,10.40
2008,05,29,04,45,10.40
2008,05,29,04,46,10.40
2008,05,29,04,47,10.40
2008,05,29,04,48,10.40
2008,05,29,04,49,10.40
2008,05,29,04,50,10.40
2008,05,29,04,51,10.40
2008,05,29,04,52,10.40
2008,05,29,04,53,10.40
2008,05,29,04,54,10.40
2008,05,29,04,55,10.40
2008,05,29,04,56,10.40
2008,05,29,04,57,10.40
2008,05,29,04,58,10.40
2008,05,29,04,59,10.40
2008,05,29,05,00,10.40
2008,05,29,05,01,10.40
2008,05,29,05,02,10.40
2008,05,29,05,03,10.40
2008,05,29,05,04,10.40
2008,05,29,05,05,10.40
2008,05,29,05,06,10.40
2008,05,29,05,07,10.40
2008,05,29,05,08,10.40
2008,05,29,05,09,10.40
2008,05,29,05,10,10.40
2008,05,29,05,11,10.40
2008,05,29,05,12,10.40
2008,05,29,05,13,10.40
2008,05,29,05,14,10.40
2008,05,29,05,15,10.40
2008,05,29,05,16,10.40
2008,05,29,05,17,10.40
2008,05,29,05,18,10.40
2008,05,29,05,19,10.40
2008,05,29,05,20,10.40
2008,05,29,05,21,10.40
2008,05,29,05,22,10.40
2008,05,29,05,23,10.40
2008,05,29,05,24,10.40
2008,05,29,05,25,10.40
2008,05,29,05,26,10.40
2008,05,29,05,27,10.40
2008,05,29,05,28,10.40
2008,05,29,05,29,10.40
2008,05,29,05,30,10.40
2008,05,29,05,31,10.40
2008,05,29,05,32,10.40
2008,05,29,05,33,10.40
2008,05,29,05,34,10.40
2008,05,29,05,35,10.40
2008,05,29,05,36,10.40
2008,05,29,05,37,10.30
2008,05,29,05,38,10.30
2008,05,29,05,39,10.30
2008,05,29,05,40,10.30
2008,05,29,05,41,10.30
2008,05,29,05,42,10.30
2008,05,29,05,43,10.30
2008,05,29,05,44,10.30
2008,05,29,05,45,10.20
2008,05,29,05,46,10.20
2008,05,29,05,47,10.20
2008,05,29,05,48,10.20
2008,05,29,05,49,10.20
2008,05,29,05,50,10.20
2008,05,29,05,51,10.10
2008,05,29,05,52,10.10
2008,05,29,05,53,10.10
2008,05,29,05,54,10.10
2008,05,29,05,55,10.10
2008,05,29,05,56,10.10
2008,05,29,05,57,10.10
2008,05,29,05,58,10.00
2008,05,29,05,59,9.90
2008,05,29,06,00,9.90
2008,05,29,06,01,9.90
2008,05,29,06,02,9.90
2008,05,29,06,03,9.90
2008,05,29,06,04,9.90
2008,05,29,06,05,9.90
2008,05,29,06,06,9.90
2008,05,29,06,07,9.90
2008,05,29,06,08,9.90
2008,05,29,06,09,9.80
2008,05,29,06,10,9.80
2008,05,29,06,11,9.80
2008,05,29,06,12,9.80
2008,05,29,06,13,9.80
2008,05,29,06,14,9.80
2008,05,29,06,15,9.80
2008,05,29,06,16,9.80
2008,05,29,06,17,9.80
2008,05,29,06,18,9.80
2008,05,29,06,19,9.80
2008,05,29,06,20,9.80
2008,05,29,06,21,9.80
2008,05,29,06,22,9.80
2008,05,29,06,23,9.80
2008,05,29,06,24,9.80
2008,05,29,06,25,9.80
2008,05,29,06,26,9.90
2008,05,29,06,27,9.90
2008,05,29,06,28,9.90
2008,05,29,06,29,9.90
2008,05,29,06,30,9.90
2008,05,29,06,31,9.90
2008,05,29,06,32,9.90
2008,05,29,06,33,10.00
2008,05,29,06,34,10.00
2008,05,29,06,35,10.10
2008,05,29,06,36,10.10
2008,05,29,06,37,10.10
2008,05,29,06,38,10.10
2008,05,29,06,39,10.10
2008,05,29,06,40,10.10
2008,05,29,06,41,10.10
2008,05,29,06,42,10.10
2008,05,29,06,43,10.10
2008,05,29,06,44,10.10
2008,05,29,06,45,10.10
2008,05,29,06,46,10.10
2008,05,29,06,47,10.10
2008,05,29,06,48,10.10
2008,05,29,06,49,10.10
2008,05,29,06,50,10.10
2008,05,29,06,51,10.10
2008,05,29,06,52,10.10
2008,05,29,06,53,10.10
2008,05,29,06,54,10.20
2008,05,29,06,55,10.20
2008,05,29,06,56,10.20
2008,05,29,06,57,10.20
2008,05,29,06,58,10.10
2008,05,29,06,59,10.10
2008,05,29,07,00,10.10
2008,05,29,07,01,10.20
2008,05,29,07,02,10.20
2008,05,29,07,03,10.20
2008,05,29,07,04,10.20
2008,05,29,07,05,10.20
2008,05,29,07,06,10.20
2008,05,29,07,07,10.30
2008,05,29,07,08,10.30
2008,05,29,07,09,10.30
2008,05,29,07,10,10.30
2008,05,29,07,11,10.30
2008,05,29,07,12,10.30
2008,05,29,07,13,10.40
2008,05,29,07,14,10.40
2008,05,29,07,15,10.40
2008,05,29,07,16,10.40
2008,05,29,07,17,10.40
2008,05,29,07,18,10.40
2008,05,29,07,19,10.40
2008,05,29,07,20,10.40
2008,05,29,07,21,10.40
2008,05,29,07,22,10.40
2008,05,29,07,23,10.40
2008,05,29,07,24,10.40
2008,05,29,07,25,10.50
2008,05,29,07,26,10.60
2008,05,29,07,27,10.60
2008,05,29,07,28,10.60
2008,05,29,07,29,10.60
2008,05,29,07,30,10.60
2008,05,29,07,31,10.60
2008,05,29,07,32,10.60
2008,05,29,07,33,10.60
2008,05,29,07,34,10.60
2008,05,29,07,35,10.60
2008,05,29,07,36,10.60
2008,05,29,07,37,10.60
2008,05,29,07,38,10.70
2008,05,29,07,39,10.70
2008,05,29,07,40,10.70
2008,05,29,07,41,10.70
2008,05,29,07,42,10.70
2008,05,29,07,43,10.70
2008,05,29,07,44,10.80
2008,05,29,07,45,10.80
2008,05,29,07,46,10.80
2008,05,29,07,47,10.80
2008,05,29,07,48,10.80
2008,05,29,07,49,10.80
2008,05,29,07,50,10.80
2008,05,29,07,51,10.80
2008,05,29,07,52,10.90
2008,05,29,07,53,10.90
2008,05,29,07,54,10.90
2008,05,29,07,55,10.90
2008,05,29,07,56,10.90
2008,05,29,07,57,10.90
2008,05,29,07,58,10.90
2008,05,29,07,59,10.90
2008,05,29,08,00,11.10
2008,05,29,08,01,11.10
2008,05,29,08,02,11.10
2008,05,29,08,03,11.10
2008,05,29,08,04,11.10
2008,05,29,08,05,11.10
2008,05,29,08,06,11.10
2008,05,29,08,07,11.20
2008,05,29,08,08,11.20
2008,05,29,08,09,11.20
2008,05,29,08,10,11.30
2008,05,29,08,11,11.30
2008,05,29,08,12,11.30
2008,05,29,08,13,11.40
2008,05,29,08,14,11.40
2008,05,29,08,15,11.40
2008,05,29,08,16,11.40
2008,05,29,08,17,11.60
2008,05,29,08,18,11.60
2008,05,29,08,19,11.60
2008,05,29,08,20,11.60
2008,05,29,08,21,11.70
2008,05,29,08,22,11.70
2008,05,29,08,23,11.80
2008,05,29,08,24,11.80
2008,05,29,08,25,11.80
2008,05,29,08,26,11.90
2008,05,29,08,27,11.90
2008,05,29,08,28,11.90
2008,05,29,08,29,12.00
2008,05,29,08,30,12.00
2008,05,29,08,31,12.00
2008,05,29,08,32,12.00
2008,05,29,08,33,12.10
2008,05,29,08,34,12.10
2008,05,29,08,35,12.10
2008,05,29,08,36,12.10
2008,05,29,08,37,12.20
2008,05,29,08,38,12.20
2008,05,29,08,39,12.20
2008,05,29,08,40,12.20
2008,05,29,08,41,12.30
2008,05,29,08,42,12.30
2008,05,29,08,43,12.30
2008,05,29,08,44,12.30
2008,05,29,08,45,12.30
2008,05,29,08,46,12.30
2008,05,29,08,47,12.40
2008,05,29,08,48,12.50
2008,05,29,08,49,12.50
2008,05,29,08,50,12.60
2008,05,29,08,51,12.60
2008,05,29,08,52,12.60
2008,05,29,08,53,12.70
2008,05,29,08,54,12.70
2008,05,29,08,55,12.70
2008,05,29,08,56,12.70
2008,05,29,08,57,12.70
2008,05,29,08,58,12.70
2008,05,29,08,59,12.70
2008,05,29,09,00,12.70
2008,05,29,09,01,12.80
2008,05,29,09,02,12.80
2008,05,29,09,03,12.80
2008,05,29,09,04,12.80
2008,05,29,09,05,12.80
2008,05,29,09,06,12.80
2008,05,29,09,07,12.80
2008,05,29,09,08,12.80
2008,05,29,09,09,12.70
2008,05,29,09,10,12.70
2008,05,29,09,11,12.70
2008,05,29,09,12,12.60
2008,05,29,09,13,12.60
2008,05,29,09,14,12.60
2008,05,29,09,15,12.70
2008,05,29,09,16,12.70
2008,05,29,09,17,12.70
2008,05,29,09,18,12.80
2008,05,29,09,19,12.80
2008,05,29,09,20,12.80
2008,05,29,09,21,12.80
2008,05,29,09,22,12.80
2008,05,29,09,23,12.70
2008,05,29,09,24,12.70
2008,05,29,09,25,12.70
2008,05,29,09,26,12.70
2008,05,29,09,27,12.70
2008,05,29,09,28,12.80
2008,05,29,09,29,12.80
2008,05,29,09,30,12.80
2008,05,29,09,31,12.80
2008,05,29,09,32,12.80
2008,05,29,09,33,12.70
2008,05,29,09,34,12.70
2008,05,29,09,35,12.70
2008,05,29,09,36,12.70
2008,05,29,09,37,12.70
2008,05,29,09,38,12.70
2008,05,29,09,39,12.70
2008,05,29,09,40,12.70
2008,05,29,09,41,12.60
2008,05,29,09,42,12.60
2008,05,29,09,43,12.60
2008,05,29,09,44,12.60
2008,05,29,09,45,12.60
2008,05,29,09,46,12.60
2008,05,29,09,47,12.60
2008,05,29,09,48,12.60
2008,05,29,09,49,12.50
2008,05,29,09,50,12.50
2008,05,29,09,51,12.40
2008,05,29,09,52,12.40
2008,05,29,09,53,12.40
2008,05,29,09,54,12.40
2008,05,29,09,55,12.30
2008,05,29,09,56,12.30
2008,05,29,09,57,12.30
2008,05,29,09,58,12.30
2008,05,29,09,59,12.30
2008,05,29,10,00,12.30
2008,05,29,10,01,12.30
2008,05,29,10,02,12.30
2008,05,29,10,03,12.30
2008,05,29,10,04,12.40
2008,05,29,10,05,12.40
2008,05,29,10,06,12.40
2008,05,29,10,07,12.40
2008,05,29,10,08,12.40
2008,05,29,10,09,12.40
2008,05,29,10,10,12.40
2008,05,29,10,11,12.40
2008,05,29,10,12,12.50
2008,05,29,10,13,12.40
2008,05,29,10,14,12.40
2008,05,29,10,15,12.40
2008,05,29,10,16,12.50
2008,05,29,10,17,12.50
2008,05,29,10,18,12.50
2008,05,29,10,19,12.50
2008,05,29,10,20,12.50
2008,05,29,10,21,12.40
2008,05,29,10,22,12.40
2008,05,29,10,23,12.40
2008,05,29,10,24,12.40
2008,05,29,10,25,12.40
2008,05,29,10,26,12.40
2008,05,29,10,27,12.40
2008,05,29,10,28,12.30
2008,05,29,10,29,12.30
2008,05,29,10,30,12.20
2008,05,29,10,31,12.20
2008,05,29,10,32,12.20
2008,05,29,10,33,12.10
2008,05,29,10,34,12.10
2008,05,29,10,35,12.00
2008,05,29,10,36,12.00
2008,05,29,10,37,12.00
2008,05,29,10,38,11.90
2008,05,29,10,39,11.90
2008,05,29,10,40,11.90
2008,05,29,10,41,11.90
2008,05,29,10,42,12.00
2008,05,29,10,43,12.00
2008,05,29,10,44,12.00
2008,05,29,10,45,12.00
2008,05,29,10,46,12.00
2008,05,29,10,47,12.00
2008,05,29,10,48,12.10
2008,05,29,10,49,12.10
2008,05,29,10,50,12.10
2008,05,29,10,51,12.10
2008,05,29,10,52,12.20
2008,05,29,10,53,12.20
2008,05,29,10,54,12.20
2008,05,29,10,55,12.30
2008,05,29,10,56,12.30
2008,05,29,10,57,12.30
2008,05,29,10,58,12.30
2008,05,29,10,59,12.30
2008,05,29,11,00,12.40
2008,05,29,11,01,12.40
2008,05,29,11,02,12.50
2008,05,29,11,03,12.50
2008,05,29,11,04,12.50
2008,05,29,11,05,12.50
2008,05,29,11,06,12.50
2008,05,29,11,07,12.50
2008,05,29,11,08,12.50
2008,05,29,11,09,12.60
2008,05,29,11,10,12.60
2008,05,29,11,11,12.70
2008,05,29,11,12,12.70
2008,05,29,11,13,12.70
2008,05,29,11,14,12.70
2008,05,29,11,15,12.70
2008,05,29,11,16,12.70
2008,05,29,11,17,12.70
2008,05,29,11,18,12.80
2008,05,29,11,19,12.80
2008,05,29,11,20,12.80
2008,05,29,11,21,12.80
2008,05,29,11,22,12.80
2008,05,29,11,23,12.80
2008,05,29,11,24,12.80
2008,05,29,11,25,12.80
2008,05,29,11,26,12.80
2008,05,29,11,27,12.80
2008,05,29,11,28,12.80
2008,05,29,11,29,12.80
2008,05,29,11,30,12.90
2008,05,29,11,31,12.90
2008,05,29,11,32,13.00
2008,05,29,11,33,13.00
2008,05,29,11,34,13.10
2008,05,29,11,35,13.10
2008,05,29,11,36,13.20
2008,05,29,11,37,13.30
2008,05,29,11,38,13.30
2008,05,29,11,39,13.20
2008,05,29,11,40,13.30
2008,05,29,11,41,13.30
2008,05,29,11,42,13.30
2008,05,29,11,43,13.30
2008,05,29,11,44,13.30
2008,05,29,11,45,13.30
2008,05,29,11,46,13.30
2008,05,29,11,47,13.40
2008,05,29,11,48,13.40
2008,05,29,11,49,13.40
2008,05,29,11,50,13.50
2008,05,29,11,51,13.50
2008,05,29,11,52,13.50
2008,05,29,11,53,13.60
2008,05,29,11,54,13.60
2008,05,29,11,55,13.60
2008,05,29,11,56,13.60
2008,05,29,11,57,13.50
2008,05,29,11,58,13.50
2008,05,29,11,59,13.40
2008,05,29,12,00,13.40
2008,05,29,12,01,13.30
2008,05,29,12,02,13.30
2008,05,29,12,03,13.30
2008,05,29,12,04,13.40
2008,05,29,12,05,13.40
2008,05,29,12,06,13.40
2008,05,29,12,07,13.40
2008,05,29,12,08,13.40
2008,05,29,12,09,13.50
2008,05,29,12,10,13.50
2008,05,29,12,11,13.50
2008,05,29,12,12,13.50
2008,05,29,12,13,13.40
2008,05,29,12,14,13.40
2008,05,29,12,15,13.30
2008,05,29,12,16,13.30
2008,05,29,12,17,13.40
2008,05,29,12,18,13.40
2008,05,29,12,19,13.30
2008,05,29,12,20,13.30
2008,05,29,12,21,13.40
2008,05,29,12,22,13.40
2008,05,29,12,23,13.40
2008,05,29,12,24,13.50
2008,05,29,12,25,13.50
2008,05,29,12,26,13.60
2008,05,29,12,27,13.60
2008,05,29,12,28,13.70
2008,05,29,12,29,13.70
2008,05,29,12,30,13.70
2008,05,29,12,31,13.80
2008,05,29,12,32,13.90
2008,05,29,12,33,13.90
2008,05,29,12,34,14.00
2008,05,29,12,35,14.00
2008,05,29,12,36,14.10
2008,05,29,12,37,14.20
2008,05,29,12,38,14.30
2008,05,29,12,39,14.40
2008,05,29,12,40,14.40
2008,05,29,12,41,14.40
2008,05,29,12,42,14.50
2008,05,29,12,43,14.50
2008,05,29,12,44,14.60
2008,05,29,12,45,14.70
2008,05,29,12,46,14.80
2008,05,29,12,47,14.90
2008,05,29,12,48,14.90
2008,05,29,12,49,14.90
2008,05,29,12,50,15.00
2008,05,29,12,51,14.90
2008,05,29,12,52,14.80
2008,05,29,12,53,14.90
2008,05,29,12,54,14.90
2008,05,29,12,55,14.90
2008,05,29,12,56,14.90
2008,05,29,12,57,14.90
2008,05,29,12,58,14.90
2008,05,29,12,59,14.90
2008,05,29,13,00,14.90
2008,05,29,13,01,14.90
2008,05,29,13,02,15.00
2008,05,29,13,03,15.10
2008,05,29,13,04,15.10
2008,05,29,13,05,15.20
2008,05,29,13,06,15.20
2008,05,29,13,07,15.20
2008,05,29,13,08,15.20
2008,05,29,13,09,15.10
2008,05,29,13,10,15.10
2008,05,29,13,11,15.00
2008,05,29,13,12,15.00
2008,05,29,13,13,14.90
2008,05,29,13,14,14.90
2008,05,29,13,15,14.90
2008,05,29,13,16,14.90
2008,05,29,13,17,15.00
2008,05,29,13,18,15.00
2008,05,29,13,19,15.10
2008,05,29,13,20,15.10
2008,05,29,13,21,15.10
2008,05,29,13,22,15.00
2008,05,29,13,23,15.10
2008,05,29,13,24,15.10
2008,05,29,13,25,15.10
2008,05,29,13,26,15.10
2008,05,29,13,27,15.10
2008,05,29,13,28,15.10
2008,05,29,13,29,15.10
2008,05,29,13,30,15.20
2008,05,29,13,31,15.10
2008,05,29,13,32,15.10
2008,05,29,13,33,14.90
2008,05,29,13,34,14.80
2008,05,29,13,35,14.80
2008,05,29,13,36,14.70
2008,05,29,13,37,14.60
2008,05,29,13,38,14.60
2008,05,29,13,39,14.60
2008,05,29,13,40,14.60
2008,05,29,13,41,14.70
2008,05,29,13,42,14.70
2008,05,29,13,43,14.80
2008,05,29,13,44,14.80
2008,05,29,13,45,14.90
2008,05,29,13,46,15.00
2008,05,29,13,47,15.00
2008,05,29,13,48,15.10
2008,05,29,13,49,15.10
2008,05,29,13,50,15.10
2008,05,29,13,51,15.10
2008,05,29,13,52,15.00
2008,05,29,13,53,15.00
2008,05,29,13,54,15.00
2008,05,29,13,55,15.00
2008,05,29,13,56,15.00
2008,05,29,13,57,15.00
2008,05,29,13,58,15.00
2008,05,29,13,59,14.90
2008,05,29,14,00,14.90
2008,05,29,14,01,14.90
2008,05,29,14,02,14.90
2008,05,29,14,03,14.90
2008,05,29,14,04,14.90
2008,05,29,14,05,14.80
2008,05,29,14,06,14.80
2008,05,29,14,07,14.80
2008,05,29,14,08,14.80
2008,05,29,14,09,14.80
2008,05,29,14,10,14.80
2008,05,29,14,11,14.90
2008,05,29,14,12,15.00
2008,05,29,14,13,15.10
2008,05,29,14,14,15.20
2008,05,29,14,15,15.30
2008,05,29,14,16,15.30
2008,05,29,14,17,15.50
2008,05,29,14,18,15.60
2008,05,29,14,19,15.70
2008,05,29,14,20,15.80
2008,05,29,14,21,15.90
2008,05,29,14,22,16.10
2008,05,29,14,23,16.20
2008,05,29,14,24,16.30
2008,05,29,14,25,16.30
2008,05,29,14,26,16.40
2008,05,29,14,27,16.60
2008,05,29,14,28,16.70
2008,05,29,14,29,16.70
2008,05,29,14,30,16.70
2008,05,29,14,31,16.70
2008,05,29,14,32,16.70
2008,05,29,14,33,16.70
2008,05,29,14,34,16.70
2008,05,29,14,35,16.60
2008,05,29,14,36,16.70
2008,05,29,14,37,16.70
2008,05,29,14,38,16.70
2008,05,29,14,39,16.70
2008,05,29,14,40,16.80
2008,05,29,14,41,16.90
2008,05,29,14,42,16.90
2008,05,29,14,43,16.90
2008,05,29,14,44,16.90
2008,05,29,14,45,16.80
2008,05,29,14,46,16.70
2008,05,29,14,47,16.70
2008,05,29,14,48,16.70
2008,05,29,14,49,16.60
2008,05,29,14,50,16.40
2008,05,29,14,51,16.30
2008,05,29,14,52,16.30
2008,05,29,14,53,16.20
2008,05,29,14,54,16.20
2008,05,29,14,55,16.30
2008,05,29,14,56,16.20
2008,05,29,14,57,16.20
2008,05,29,14,58,16.30
2008,05,29,14,59,16.40
2008,05,29,15,00,16.40
2008,05,29,15,01,16.50
2008,05,29,15,02,16.40
2008,05,29,15,03,16.60
2008,05,29,15,04,16.70
2008,05,29,15,05,16.70
2008,05,29,15,06,16.70
2008,05,29,15,07,16.50
2008,05,29,15,08,16.30
2008,05,29,15,09,16.20
2008,05,29,15,10,16.20
2008,05,29,15,11,16.30
2008,05,29,15,12,16.40
2008,05,29,15,13,16.50
2008,05,29,15,14,16.70
2008,05,29,15,15,16.80
2008,05,29,15,16,16.90
2008,05,29,15,17,17.00
2008,05,29,15,18,17.00
2008,05,29,15,19,17.00
2008,05,29,15,20,17.00
2008,05,29,15,21,17.10
2008,05,29,15,22,17.20
2008,05,29,15,23,17.20
2008,05,29,15,24,17.30
2008,05,29,15,25,17.30
2008,05,29,15,26,17.30
2008,05,29,15,27,17.30
2008,05,29,15,28,17.30
2008,05,29,15,29,17.30
2008,05,29,15,30,17.30
2008,05,29,15,31,17.30
2008,05,29,15,32,17.30
2008,05,29,15,33,17.30
2008,05,29,15,34,17.50
2008,05,29,15,35,17.50
2008,05,29,15,36,17.50
2008,05,29,15,37,17.60
2008,05,29,15,38,17.70
2008,05,29,15,39,17.70
2008,05,29,15,40,17.80
2008,05,29,15,41,17.80
2008,05,29,15,42,17.70
2008,05,29,15,43,17.60
2008,05,29,15,44,17.60
2008,05,29,15,45,17.50
2008,05,29,15,46,17.50
2008,05,29,15,47,17.50
2008,05,29,15,48,17.40
2008,05,29,15,49,17.40
2008,05,29,15,50,17.40
2008,05,29,15,51,17.30
2008,05,29,15,52,17.30
2008,05,29,15,53,17.10
2008,05,29,15,54,17.10
2008,05,29,15,55,17.00
2008,05,29,15,56,16.90
2008,05,29,15,57,16.80
2008,05,29,15,58,16.60
2008,05,29,15,59,16.40
2008,05,29,16,00,16.30
2008,05,29,16,01,16.20
2008,05,29,16,02,16.20
2008,05,29,16,03,16.20
2008,05,29,16,04,16.10
2008,05,29,16,05,16.10
2008,05,29,16,06,16.10
2008,05,29,16,07,16.10
2008,05,29,16,08,16.10
2008,05,29,16,09,15.90
2008,05,29,16,10,15.90
2008,05,29,16,11,15.80
2008,05,29,16,12,15.80
2008,05,29,16,13,15.80
2008,05,29,16,14,15.80
2008,05,29,16,15,15.70
2008,05,29,16,16,15.70
2008,05,29,16,17,15.60
2008,05,29,16,18,15.60
2008,05,29,16,19,15.50
2008,05,29,16,20,15.50
2008,05,29,16,21,15.50
2008,05,29,16,22,15.40
2008,05,29,16,23,15.40
2008,05,29,16,24,15.30
2008,05,29,16,25,15.30
2008,05,29,16,26,15.30
2008,05,29,16,27,15.20
2008,05,29,16,28,15.20
2008,05,29,16,29,15.10
2008,05,29,16,30,15.10
2008,05,29,16,31,15.10
2008,05,29,16,32,15.10
2008,05,29,16,33,15.00
2008,05,29,16,34,15.10
2008,05,29,16,35,15.10
2008,05,29,16,36,15.00
2008,05,29,16,37,15.00
2008,05,29,16,38,15.00
2008,05,29,16,39,15.00
2008,05,29,16,40,15.00
2008,05,29,16,41,15.10
2008,05,29,16,42,15.10
2008,05,29,16,43,15.10
2008,05,29,16,44,15.20
2008,05,29,16,45,15.20
2008,05,29,16,46,15.20
2008,05,29,16,47,15.30
2008,05,29,16,48,15.30
2008,05,29,16,49,15.30
2008,05,29,16,50,15.30
2008,05,29,16,51,15.30
2008,05,29,16,52,15.30
2008,05,29,16,53,15.30
2008,05,29,16,54,15.30
2008,05,29,16,55,15.30
2008,05,29,16,56,15.30
2008,05,29,16,57,15.20
2008,05,29,16,58,15.20
2008,05,29,16,59,15.10
2008,05,29,17,00,15.10
2008,05,29,17,01,15.00
2008,05,29,17,02,15.00
2008,05,29,17,03,14.90
2008,05,29,17,04,14.90
2008,05,29,17,05,14.90
2008,05,29,17,06,14.80
2008,05,29,17,07,14.80
2008,05,29,17,08,14.80
2008,05,29,17,09,14.80
2008,05,29,17,10,14.70
2008,05,29,17,11,14.70
2008,05,29,17,12,14.60
2008,05,29,17,13,14.60
2008,05,29,17,14,14.60
2008,05,29,17,15,14.50
2008,05,29,17,16,14.50
2008,05,29,17,17,14.50
2008,05,29,17,18,14.50
2008,05,29,17,19,14.50
2008,05,29,17,20,14.40
2008,05,29,17,21,14.40
2008,05,29,17,22,14.40
2008,05,29,17,23,14.40
2008,05,29,17,24,14.40
2008,05,29,17,25,14.40
2008,05,29,17,26,14.40
2008,05,29,17,27,14.40
2008,05,29,17,28,14.40
2008,05,29,17,29,14.40
2008,05,29,17,30,14.40
2008,05,29,17,31,14.30
2008,05,29,17,32,14.30
2008,05,29,17,33,14.30
2008,05,29,17,34,14.30
2008,05,29,17,35,14.30
2008,05,29,17,36,14.30
2008,05,29,17,37,14.30
2008,05,29,17,38,14.30
2008,05,29,17,39,14.30
2008,05,29,17,40,14.30
2008,05,29,17,41,14.30
2008,05,29,17,42,14.30
2008,05,29,17,43,14.30
2008,05,29,17,44,14.30
2008,05,29,17,45,14.30
2008,05,29,17,46,14.30
2008,05,29,17,47,14.30
2008,05,29,17,48,14.30
2008,05,29,17,49,14.30
2008,05,29,17,50,14.30
2008,05,29,17,51,14.20
2008,05,29,17,52,14.20
2008,05,29,17,53,14.20
2008,05,29,17,54,14.20
2008,05,29,17,55,14.20
2008,05,29,17,56,14.20
2008,05,29,17,57,14.20
2008,05,29,17,58,14.20
2008,05,29,17,59,14.20
2008,05,29,18,00,14.20
2008,05,29,18,01,14.20
2008,05,29,18,02,14.20
2008,05,29,18,03,14.20
2008,05,29,18,04,14.20
2008,05,29,18,05,14.20
2008,05,29,18,06,14.20
2008,05,29,18,07,14.20
2008,05,29,18,08,14.20
2008,05,29,18,09,14.20